This is the latest recevied weather packets stored in our database for station/object VA3VWX-13. If no packets are shown the sender has not sent any weather packets the latest 10 day(s).
| Time | Temp. | Humidity | Pressure | Rain* | Wind** | Luminosity | Snow |
|---|---|---|---|---|---|---|---|
| 1777573409 | 11.67° C | 52% | 1011.8 hPa | 0 mm | - | - | - |
| 1777573119 | 11.11° C | 52% | 1011.9 hPa | 0 mm | - | - | - |
| 1777572816 | 11.11° C | 53% | 1011.9 hPa | 0 mm | - | - | - |
| 1777572503 | 11.11° C | 52% | 1011.8 hPa | 0 mm | - | - | - |
| 1777572221 | 11.11° C | 52% | 1011.8 hPa | 0 mm | - | - | - |
| 1777571930 | 11.11° C | 53% | 1011.7 hPa | 0 mm | - | - | - |
| 1777571609 | 11.11° C | 53% | 1011.7 hPa | 0 mm | - | - | - |
| 1777571318 | 10.56° C | 55% | 1011.9 hPa | 0 mm | - | - | - |
| 1777571024 | 10° C | 64% | 1011.9 hPa | 0 mm | - | - | - |
| 1777570731 | 9.44° C | 67% | 1011.8 hPa | 0 mm | - | - | - |
| 1777570407 | 9.44° C | 69% | 1011.8 hPa | 0 mm | - | - | - |
| 1777570116 | 8.89° C | 69% | 1011.9 hPa | 0 mm | - | - | - |
| 1777569823 | 8.89° C | 71% | 1011.8 hPa | 0 mm | - | - | - |
| 1777569521 | 8.89° C | 71% | 1011.9 hPa | 0 mm | - | - | - |
| 1777569206 | 8.89° C | 69% | 1011.9 hPa | 0 mm | - | - | - |
| 1777568930 | 10° C | 67% | 1011.9 hPa | 0 mm | - | - | - |
| 1777568647 | 10.56° C | 56% | 1011.9 hPa | 0 mm | - | - | - |
| 1777568307 | 10.56° C | 55% | 1011.9 hPa | 0 mm | - | - | - |
| 1777568014 | 10.56° C | 57% | 1011.8 hPa | 0 mm | - | - | - |
| 1777567720 | 10.56° C | 57% | 1011.8 hPa | 0 mm | - | - | - |
| 1777567419 | 10.56° C | 58% | 1011.8 hPa | 0 mm | - | - | - |
| 1777567106 | 10° C | 57% | 1011.8 hPa | 0 mm | - | - | - |
| 1777566813 | 10° C | 58% | 1011.8 hPa | 0 mm | - | - | - |
| 1777566512 | 10° C | 58% | 1011.7 hPa | 0 mm | - | - | - |
| 1777566219 | 10° C | 58% | 1011.8 hPa | 0 mm | - | - | - |
* Rain latest hour (hover to see other rain measurements)
** Current wind speed in m/s (hover to see current wind gust speed)